Regional Weather Roundup
Issued by NWS

Home | Current Version | Previous Version | Text Only | Print | Product List | Glossary On
Versions: 1 2 3 4 5 6 7 8 9 10 11 12 13 14 15 16 17 18 19 20 21 22 23 24 25 26 27 28 29 30 31 32 33 34 35 36 37 38 39 40 41 42 43 44 45 46 47 48
000
ASUS45 KREV 261010
RWRNV
NEVADA REGIONAL WEATHER ROUNDUP
NATIONAL WEATHER SERVICE RENO NV
300 AM PDT TUE MAY 26 2015

NOTE: "FAIR" INDICATES FEW OR NO CLOUDS BELOW 12,000 FEET WITH NO
SIGNIFICANT WEATHER AND/OR OBSTRUCTIONS TO VISIBILITY.

NVZ001-003-004-261100-
WESTERN NEVADA

CITY           SKY/WX    TMP DP  RH WIND       PRES   REMARKS
RENO           PTCLDY    49  47  93 CALM      30.03F
CARSON CITY    FAIR      46  43  87 CALM      30.05F
MINDEN         FAIR      45  39  81 CALM      30.06
PYRAMID LAKE     N/A     57 N/A N/A W2          N/A
FALLON         CLEAR     51  48  89 S9        29.99S
LOVELOCK       PTCLDY    50  48  93 CALM      29.99S
HAWTHORNE      CLEAR     55  48  76 CALM      30.01F
$$

NVZ002-CAZ072-073-261100-
NORTHERN AND CENTRAL SIERRA

CITY           SKY/WX    TMP DP  RH WIND       PRES   REMARKS
S. LAKE TAHOE  CLEAR     40  36  86 S5        30.10S
TRUCKEE        FOG       34  34 100 CALM      30.10S VSB 3/4
SQUAW VLY 8000   N/A     43  34  70 SW6         N/A
SUSANVILLE     CLEAR     46  45  93 CALM      30.02S
BLUE CANYON    CLEAR     55  39  54 CALM      30.07F
MAMMOTH LAKES  FAIR      43  36  75 W3        30.13S
BRIDGEPORT     FAIR      38  33  82 CALM      30.10F
$$

NVZ030-031-036-261100-
NORTHERN NEVADA

CITY           SKY/WX    TMP DP  RH WIND       PRES   REMARKS
ELKO           CLOUDY    48  45  89 CALM      30.02S
WINNEMUCCA     PTCLDY    51  44  77 S6          N/A
WENDOVER       MOCLDY    54  46  76 E7        29.97S
$$

NVZ035-037-261100-
CENTRAL NEVADA

CITY           SKY/WX    TMP DP  RH WIND       PRES   REMARKS
ELY            CLOUDY    48  45  89 SW10      30.08F
EUREKA           N/A     44  41  89 CALM      30.07S
$$

NVZ013-014-261100-
SOUTH CENTRAL NEVADA

CITY           SKY/WX    TMP DP  RH WIND       PRES   REMARKS
TONOPAH        PTCLDY    51  42  71 NE5       30.05R
$$

NVZ017-020-022-261100-
SOUTHERN NEVADA

CITY           SKY/WX    TMP DP  RH WIND       PRES   REMARKS
LAS VEGAS      PTCLDY    77  38  24 S14       29.83S
N. LAS VEGAS   CLEAR     73  38  27 SE6       29.85S
NELLIS AFB     CLEAR     76  41  28 S10       29.84S
HENDERSON      CLEAR     73  42  32 S8        29.91S
MERCURY        CLEAR     67  42  40 VRB3      29.93R
$$



USA.gov is the U.S. government's official web portal to all federal, state and local government web resources and services.